Probability
0 0 0 0 0 0 0 0 0 0 0 0 0 0 0 0 0 0 0 0 0 0 0 0 0 0 0 0 0 0 0 0 0 0 0 0 0 0 0 1 2 4 5 4 2 2 3 3 3
0 0 0 0 0 0 0 0 0 0 0 0 0 0 0 0 0 0 0 0 0 0 0 0 0 0 0 0 0 0 0 0 0 0 0 0 0 0 0 2 4 6 6 5 3 2 3 3 3
0 0 0 0 0 0 0 0 0 0 0 0 0 0 0 0 0 0 0 0 0 0 0 0 0 0 0 0 0 0 0 0 0 0 0 0 0 0 1 3 5 6 6 5 4 2 2 2 1
0 0 0 0 0 0 0 0 0 0 0 0 0 0 0 0 0 0 0 0 0 0 0 0 0 0 0 0 0 0 1 1 1 0 0 0 0 0 1 2 4 5 6 6 4 2 1 0 0
0 0 0 0 0 0 0 0 0 0 0 0 0 0 0 0 0 0 0 0 0 0 0 0 0 0 0 0 0 0 1 2 1 0 0 0 0 0 0 1 2 3 5 5 3 2 1 0 0
0 0 0 0 0 0 0 0 0 0 0 0 0 0 0 0 0 0 0 0 0 0 0 0 0 0 0 0 0 0 1 1 1 0 0 0 0 0 0 0 1 1 2 2 1 1 0 0 0
0 0 0 0 0 0 0 0 0 0 0 0 0 0 0 0 0 0 0 0 0 0 0 0 0 0 0 0 0 0 0 0 0 0 0 0 0 0 0 0 0 0 0 0 0 0 0 0 1
0 0 0 0 0 0 0 0 0 0 0 0 0 0 0 0 0 0 0 0 0 0 0 0 0 0 0 0 0 0 0 0 0 0 0 0 0 0 0 0 0 0 0 0 0 0 0 0 1
0 0 0 0 0 0 0 0 0 0 0 0 0 0 0 0 0 0 0 0 0 0 0 0 0 0 0 0 0 0 0 0 0 0 0 0 0 0 0 0 0 0 0 0 0 0 0 0 1
0 0 0 0 0 0 0 0 0 0 0 0 0 0 0 0 0 0 0 0 0 0 0 0 0 0 0 0 0 0 0 0 0 0 0 0 0 0 0 0 0 0 0 0 0 0 0 0 0
0 0 0 0 0 0 0 0 0 0 0 0 0 0 0 1 1 1 0 0 0 0 0 0 0 0 0 0 0 0 0 0 0 0 0 0 0 0 0 0 0 0 1 1 1 1 0 0 0
0 0 0 0 0 0 0 0 0 0 0 0 0 0 0 1 1 1 0 0 0 0 0 0 0 0 0 0 0 0 0 0 0 0 0 0 0 0 0 0 0 1 2 2 2 2 1 0 0
0 0 0 0 0 0 0 0 0 0 0 0 0 0 0 0 1 1 0 0 0 0 0 0 0 0 0 0 0 0 0 0 0 0 0 0 0 0 0 0 0 1 2 2 2 2 1 0 0
0 0 0 0 0 0 0 0 0 0 0 0 0 0 0 0 0 0 0 0 0 0 0 0 0 0 0 0 0 0 0 0 0 0 0 0 0 0 0 0 0 1 1 1 1 1 0 0 0
0 0 0 0 0 0 0 0 0 0 0 0 0 0 0 0 0 0 0 0 0 0 0 0 0 0 0 0 0 0 0 0 0 0 0 0 0 0 0 0 0 0 0 0 0 0 0 0 0
0 0 0 0 0 0 0 0 0 0 0 0 0 0 0 0 0 0 0 0 0 0 0 0 0 0 0 0 0 0 0 0 0 0 0 0 0 0 0 0 0 0 0 0 0 0 0 0 0
0 0 0 0 0 0 0 0 0 0 0 0 0 0 0 0 0 0 0 0 0 0 0 0 0 0 0 0 0 0 0 0 0 0 0 0 0 0 0 0 0 0 0 0 0 0 0 0 0
0 0 0 0 0 0 0 0 0 0 0 0 0 0 0 0 0 0 0 0 0 0 0 0 0 0 0 0 0 0 0 0 0 0 0 0 0 0 0 0 0 0 0 0 0 0 0 0 0
0 0 0 0 0 0 0 0 0 0 0 0 0 0 0 0 0 0 0 0 0 0 0 0 0 0 0 0 0 0 0 0 0 0 0 0 0 0 0 0 0 0 0 0 0 0 0 0 0
0 0 0 0 0 0 0 0 0 0 0 0 0 0 0 0 0 0 0 0 0 0 0 0 0 0 0 0 0 0 0 0 0 0 0 0 0 0 0 0 0 0 0 0 0 0 0 0 0
0 0 0 0 0 0 0 0 0 0 0 0 0 0 0 0 0 0 0 0 0 0 0 0 0 0 0 0 0 0 0 0 0 0 0 0 0 0 0 0 0 0 0 0 0 0 0 0 0
0 0 0 0 0 0 0 0 0 0 0 0 0 0 0 0 0 0 0 0 0 0 0 0 0 0 0 0 0 0 0 0 0 0 0 0 0 0 0 0 0 0 0 0 0 0 0 0 0
0 0 0 0 0 0 0 0 0 0 0 0 0 0 0 0 0 0 0 0 0 0 0 0 0 0 0 0 1 0 0 0 0 0 0 0 0 0 0 0 0 0 0 0 0 0 0 0 1
0 0 0 0 0 0 0 0 0 0 0 0 0 0 0 0 0 0 0 0 0 0 0 0 0 0 0 0 0 0 0 0 0 0 0 0 0 1 1 0 0 0 0 0 0 0 0 0 1
0 0 0 0 0 0 0 0 0 0 0 0 0 0 0 0 0 0 1 1 1 0 0 0 0 0 0 0 0 0 1 1 0 0 0 0 1 2 1 0 0 0 0 0 0 0 0 0 1
0 0 0 0 0 0 0 0 0 0 0 0 0 0 0 0 0 0 1 2 1 0 0 0 0 0 0 0 0 0 1 1 0 0 0 1 2 2 1 0 0 0 0 0 0 0 0 0 0
0 0 0 0 0 0 0 0 0 0 0 0 0 0 0 0 0 0 0 1 1 0 0 0 0 0 0 0 0 0 1 1 1 1 1 1 1 1 0 0 0 0 0 0 0 0 0 0 0
0 0 0 0 0 0 0 0 0 0 0 0 0 0 0 0 0 0 0 0 0 0 0 0 0 0 0 0 0 1 1 1 2 2 2 1 0 0 0 0 0 0 0 0 0 0 0 0 0
0 0 0 0 0 0 0 0 0 0 0 0 0 0 0 0 0 0 0 0 1 1 1 1 0 0 0 0 1 2 2 2 2 2 1 0 0 0 0 0 0 0 0 0 0 0 0 0 0
0 0 0 0 0 0 0 0 0 0 0 0 1 1 1 0 0 0 0 1 2 2 2 2 1 0 0 1 2 2 2 1 1 1 0 0 0 0 0 0 0 0 0 0 0 0 0 0 0
Wind_Speed
2 1 2 3 3 2 5 5 4 5 5 6 6 5 6 7 6 6 5 4 4 4 5 6 7 8 8 8 9 9 10 10 10 9 10 10 10 9 9 9 8 9 9 9 9 9 9 10 10
1 1 3 3 2 4 6 5 6 6 6 5 5 5 6 8 7 6 4 4 4 5 5 6 8 8 9 9 9 9 10 10 10 10 10 10 10 10 10 9 9 10 10 11 12 11 11 10 11
1 2 2 1 2 3 6 6 7 7 5 3 4 5 5 6 6 5 5 5 5 6 6 8 8 9 9 9 9 9 10 10 10 10 10 10 10 10 10 10 10 10 11 12 12 12 11 11 11
2 2 1 2 7 6 5 6 5 7 5 4 4 7 6 6 4 6 6 6 6 6 7 8 8 8 9 9 9 9 10 10 10 9 9 10 10 10 10 10 10 10 11 11 11 12 12 12 11
2 1 3 5 7 6 5 5 4 4 4 4 4 7 7 6 6 7 7 6 6 7 6 8 8 8 9 9 9 9 9 10 10 10 10 10 10 10 10 10 10 11 11 11 12 12 12 12 11
1 2 3 6 7 6 5 4 3 5 6 5 5 6 7 6 7 7 7 6 7 6 6 7 8 8 9 9 9 9 9 10 10 10 10 10 10 10 10 10 10 11 11 11 12 12 12 12 12
0 1 4 7 7 6 5 3 3 4 5 5 2 5 7 6 6 7 7 7 7 6 6 6 7 7 8 9 9 9 10 10 10 10 10 10 11 11 11 11 11 11 11 11 12 12 12 12 12
1 2 5 5 6 5 5 4 4 3 5 4 2 3 6 6 6 7 7 7 7 6 6 6 6 6 6 7 9 9 10 10 10 10 10 9 9 10 9 10 11 11 11 11 12 12 12 12 12
2 2 4 4 4 6 6 5 4 4 5 4 4 4 6 9 8 7 7 6 6 5 5 5 5 5 5 6 7 7 8 7 6 7 7 4 5 7 7 11 11 11 11 11 12 11 10 10 10
1 2 4 3 3 5 6 4 5 4 5 4 5 6 8 9 7 7 6 6 6 5 5 4 5 4 5 4 4 4 4 4 4 5 5 4 5 6 7 10 10 10 10 11 10 9 7 4 5
3 4 5 4 4 6 6 5 3 3 3 3 5 8 9 8 7 6 6 5 5 5 4 4 4 4 4 3 3 3 3 3 3 5 5 4 4 4 4 4 5 6 6 6 7 5 5 6 5
5 6 4 5 5 5 5 4 4 3 4 4 6 8 9 8 7 6 6 5 5 4 4 4 3 4 4 4 3 3 3 2 3 3 4 4 3 3 4 3 4 4 3 4 4 4 6 7 7
5 5 5 5 5 5 6 5 4 4 5 6 7 8 7 7 6 5 5 5 5 4 4 4 3 3 4 4 3 3 3 2 3 3 3 4 3 3 4 4 4 4 4 4 4 5 6 6 7
4 6 5 5 5 4 5 4 3 4 5 7 7 7 6 6 6 5 5 4 4 4 4 4 3 3 4 3 3 2 3 2 3 2 2 3 3 3 3 4 4 4 4 4 4 5 5 5 6
5 6 5 4 4 4 4 3 3 5 6 7 7 6 6 5 5 5 4 4 4 4 4 4 3 3 4 3 3 2 2 2 2 2 2 3 3 3 3 3 4 3 4 4 4 5 5 5 5
4 4 4 4 3 4 6 2 4 6 7 7 6 6 6 5 5 4 4 3 3 3 4 4 3 3 4 3 3 2 2 2 2 2 1 3 3 3 3 3 3 3 3 3 3 4 4 5 5
4 3 3 4 3 4 5 2 5 6 7 7 7 7 6 6 6 5 4 4 4 4 4 4 4 3 4 3 2 2 2 2 1 2 1 2 3 3 3 3 3 3 3 3 3 3 4 5 5
2 2 2 2 3 4 5 3 4 6 7 7 7 7 7 6 6 6 5 4 4 4 4 4 5 4 4 3 2 2 2 1 1 1 1 2 2 3 2 2 3 3 2 2 3 4 3 4 4
2 2 2 0 2 3 4 4 4 5 7 7 8 8 8 7 6 6 6 5 5 5 5 5 5 5 4 3 2 2 2 1 2 1 2 1 2 2 2 1 2 2 2 2 3 3 4 3 3
4 4 3 1 2 3 3 4 4 5 7 8 8 9 9 8 8 7 7 6 6 5 6 5 5 5 4 2 2 1 1 1 1 1 1 1 1 1 2 2 2 2 2 3 3 2 2 2 1
5 5 3 2 1 3 4 5 4 4 6 7 7 8 8 8 9 8 8 7 7 6 6 5 5 5 5 4 2 2 2 2 2 2 1 1 1 1 1 2 2 2 2 2 3 3 2 1 1
4 3 4 4 5 3 4 4 3 4 5 6 8 9 9 9 9 8 8 8 7 7 6 6 6 6 6 6 5 4 3 2 2 2 2 2 2 2 2 2 2 2 2 2 3 3 2 1 1
2 1 3 5 5 5 5 6 1 3 4 5 6 8 9 9 9 9 8 8 7 7 6 6 6 6 6 6 6 5 3 2 2 2 3 3 2 2 2 2 2 3 2 2 2 2 2 2 1
4 5 4 5 6 6 3 5 2 1 2 2 3 6 8 9 9 8 8 7 6 6 5 5 6 6 6 6 6 6 5 4 4 4 3 3 2 2 3 3 2 3 2 3 3 3 3 2 2
7 6 4 5 5 3 1 4 1 3 2 3 2 3 6 8 8 8 8 8 7 6 6 6 6 6 6 7 6 6 6 5 5 4 4 4 3 3 3 3 3 2 2 2 2 3 2 3 2
6 7 5 3 2 1 3 4 1 3 2 2 1 1 4 6 7 8 8 7 7 6 6 6 7 7 6 6 6 6 5 4 4 4 4 4 3 2 3 4 3 3 3 3 2 2 2 2 2
5 6 5 6 4 5 3 2 2 1 1 2 2 2 4 6 6 7 7 7 7 7 6 6 6 6 6 6 6 5 5 5 4 5 4 3 3 2 3 4 3 3 3 3 3 2 2 2 2
4 3 4 6 5 5 4 4 1 1 1 1 2 2 3 5 6 5 5 6 6 6 6 6 6 6 5 5 4 3 4 4 4 4 4 4 3 3 4 4 4 4 4 4 3 3 2 2 2
4 5 6 5 5 5 3 1 2 1 1 1 1 2 3 3 4 5 5 5 5 5 5 5 5 5 5 5 5 5 4 4 4 4 4 4 4 4 5 5 4 4 4 5 4 4 4 3 3
4 5 6 6 6 6 6 1 3 1 1 0 1 2 2 2 3 3 4 4 4 5 5 5 4 4 4 3 4 4 4 3 3 3 3 4 4 4 5 5 5 5 5 5 4 4 4 4 4
Wind_Direction
211 241 248 247 218 129 86 80 85 97 81 67 68 63 62 47 28 58 74 74 70 78 79 88 72 71 74 78 81 81 83 84 85 89 88 87 86 85 84 82 79 74 69 65 79 92 84 82 80
294 253 234 241 223 129 96 91 89 79 93 104 86 77 78 69 55 81 90 81 85 83 81 79 79 74 71 75 80 82 84 85 84 84 87 88 86 84 80 80 78 75 71 68 79 87 83 82 80
195 259 267 212 91 81 101 97 98 98 103 108 95 68 57 66 72 82 87 103 97 87 83 82 77 74 70 73 80 84 85 84 83 84 85 85 84 83 83 80 76 75 73 72 77 82 82 79 78
240 217 213 120 97 72 82 102 114 125 105 80 104 94 83 57 61 88 109 108 98 90 85 85 76 74 70 72 75 79 80 83 84 83 81 81 80 81 82 81 79 77 76 76 78 80 81 78 74
242 236 144 117 98 91 85 89 118 112 99 88 101 105 94 72 83 103 113 107 98 92 88 88 75 72 68 73 77 77 79 79 78 78 79 79 78 78 79 80 79 78 77 78 79 79 79 79 75
214 215 152 123 111 105 97 93 117 100 100 101 106 111 95 98 105 108 109 104 95 92 91 95 87 74 71 72 78 76 76 77 76 76 76 77 77 77 77 78 79 80 80 78 80 80 80 78 74
292 140 116 121 125 120 103 96 95 103 100 83 79 111 114 113 106 116 112 104 98 94 92 95 97 94 85 73 72 76 76 76 74 73 74 76 76 76 76 76 78 81 83 80 80 80 80 78 75
331 154 129 127 133 118 114 109 87 79 86 80 58 103 121 127 125 120 115 110 102 98 97 93 90 87 91 89 75 72 72 74 74 74 74 81 90 88 84 83 79 81 82 80 80 81 80 78 75
254 177 128 122 130 122 134 130 105 93 104 97 69 59 97 126 135 130 124 116 109 103 101 97 93 85 85 86 87 89 86 82 95 93 89 99 91 88 89 76 79 80 79 78 80 82 84 86 82
278 110 88 83 110 127 134 123 127 133 114 114 108 98 115 134 142 136 131 125 119 112 105 98 97 93 87 84 91 85 86 87 80 82 85 82 81 74 77 90 82 84 86 88 84 89 99 90 82
69 84 98 96 104 127 129 114 110 139 102 105 130 132 137 142 144 139 133 127 118 115 109 107 108 97 90 95 88 80 79 78 75 73 82 83 86 94 88 96 106 100 100 91 96 95 73 72 68
101 89 96 108 114 127 126 126 113 78 68 81 117 135 143 147 146 146 144 137 132 119 111 113 110 111 103 96 92 89 85 81 79 71 74 80 78 79 77 76 75 76 77 78 75 75 76 73 71
113 108 99 108 119 118 119 115 108 94 93 109 123 136 146 150 151 152 151 145 140 130 123 120 125 117 104 95 89 93 82 74 82 66 68 74 79 81 84 84 75 73 76 82 81 77 75 70 66
104 119 120 124 131 140 133 124 134 118 128 130 138 143 150 156 159 156 158 158 152 141 132 129 137 127 116 109 109 88 85 83 73 70 59 77 82 84 85 82 77 74 73 70 77 80 76 72 67
143 140 139 143 157 156 169 155 160 143 154 148 151 149 153 161 165 170 170 171 163 153 146 138 141 145 133 117 98 89 83 86 82 81 78 89 88 94 95 87 86 85 88 87 81 82 78 79 80
175 184 168 139 171 177 216 177 137 155 169 164 165 162 167 168 175 176 177 180 166 166 160 146 154 160 141 124 123 122 106 82 85 86 79 96 104 98 93 93 87 86 83 84 87 87 85 82 75
191 194 174 154 174 187 216 191 143 170 184 181 180 178 179 174 180 182 186 186 175 171 165 156 156 161 144 142 143 121 107 91 83 76 63 92 104 107 108 98 97 96 93 92 92 86 86 87 80
185 203 195 184 157 195 212 211 165 182 198 197 191 190 187 187 185 182 184 185 182 179 173 168 156 160 149 158 155 134 116 115 91 82 89 97 114 113 107 119 119 111 107 102 99 94 90 90 91
242 236 232 229 167 215 226 233 210 194 206 209 203 200 196 194 186 182 187 184 183 182 177 178 176 169 165 161 165 165 156 151 135 123 111 122 133 136 130 137 136 139 126 121 119 112 112 111 113
216 215 210 165 149 239 248 258 240 211 215 218 214 206 201 196 184 182 187 184 185 188 187 182 185 177 172 165 162 168 154 160 120 135 147 149 147 161 158 171 160 157 143 150 138 134 140 130 159
218 240 236 218 189 224 259 250 214 196 207 213 219 212 205 201 196 187 188 190 189 193 189 192 191 181 176 171 162 160 155 169 164 167 158 152 160 178 192 177 171 170 177 163 171 174 180 166 173
229 249 243 229 246 247 253 278 197 187 202 211 214 210 206 203 203 192 188 191 195 196 193 199 195 190 179 181 187 197 198 193 178 180 160 171 177 185 193 183 192 186 190 179 192 193 216 218 197
252 192 225 236 253 261 237 260 205 176 222 223 217 209 205 203 202 196 193 193 196 194 196 202 197 192 186 189 192 208 212 205 187 188 182 188 170 179 180 193 204 202 199 199 204 208 236 245 263
178 178 187 219 243 251 241 250 250 150 276 262 216 206 202 198 198 197 193 191 194 190 193 200 199 194 194 197 200 208 210 208 202 203 198 193 177 183 185 200 215 217 209 207 210 218 230 250 262
210 225 224 214 213 227 131 248 276 36 349 309 278 202 190 188 189 190 188 186 189 188 190 193 197 202 203 208 213 217 214 216 214 213 207 205 193 192 192 197 212 219 218 214 216 224 231 233 242
217 239 254 265 249 205 194 238 88 43 5 338 313 170 173 180 184 186 187 184 184 185 191 197 200 205 208 213 219 222 215 219 221 223 221 217 207 203 197 201 207 211 212 210 211 235 231 237 236
216 227 271 280 273 268 225 195 171 106 69 66 82 135 163 176 182 186 185 185 187 188 190 197 201 203 205 208 216 222 222 225 223 225 224 221 216 204 205 208 203 204 205 211 205 222 213 221 232
271 234 222 242 253 247 233 231 230 121 33 64 82 128 147 167 178 181 186 186 190 192 192 194 202 205 204 203 210 212 219 224 228 228 223 221 217 208 207 212 211 205 200 200 205 217 214 213 204
195 210 232 242 260 272 261 141 52 356 351 4 92 103 133 155 170 174 177 180 184 187 187 192 201 206 204 203 203 205 208 214 219 228 229 223 220 217 214 214 219 215 207 204 199 206 196 208 202
265 247 242 249 244 254 271 272 91 51 11 24 102 112 125 148 165 166 169 170 175 180 182 188 196 202 203 205 202 204 205 205 216 225 233 229 224 223 221 220 221 216 215 212 208 206 201 202 206